THY19P LTFM-LSZH

Flight info

Callsign THY19P
Flight time 2h 32m
Altitude 40000
Route VADEN1E/36 VADEN DCT BAKLO DCT XANEX DCT BESLI DCT UTEKA DCT BEDOX DCT ERKIR DCT KPT L856 NEGRA
Aircraft A332/H-SDE3GHIJ2J3J5M1RVWXY/LB2D1

Departure

Time 2026-05-05 17:00
Airport İstanbul Airport (LTFM)

Arrival

Time 2026-05-05 19:33
Airport Zürich Airport (LSZH)
Time Latitude Longitude Altitude Speed Heading
2026-05-05 16:29 41.26635 28.74722 317 ft 0 kts 88°
2026-05-05 16:45 41.26635 28.74712 317 ft 2 kts 88°
2026-05-05 16:45 41.26634 28.74691 316 ft 2 kts 88°
2026-05-05 16:46 41.26632 28.74669 315 ft 2 kts 79°
2026-05-05 16:46 41.26629 28.74655 314 ft 2 kts 71°
2026-05-05 16:46 41.26623 28.74636 316 ft 2 kts 55°
2026-05-05 16:46 41.26608 28.74616 314 ft 2 kts 20°
2026-05-05 16:47 41.26599 28.74612 315 ft 1 kts
2026-05-05 16:49 41.26629 28.74613 314 ft 11 kts
2026-05-05 16:49 41.26715 28.74612 317 ft 13 kts 359°
2026-05-05 16:49 41.26812 28.74609 317 ft 15 kts 359°
2026-05-05 16:50 41.26913 28.74606 317 ft 13 kts 359°
2026-05-05 16:50 41.26970 28.74647 316 ft 5 kts 79°
2026-05-05 16:50 41.26972 28.74734 316 ft 12 kts 90°
2026-05-05 16:50 41.26972 28.74854 316 ft 14 kts 89°
2026-05-05 16:51 41.26974 28.74984 316 ft 14 kts 89°
2026-05-05 16:51 41.26975 28.75096 316 ft 12 kts 89°
2026-05-05 16:51 41.26977 28.75220 310 ft 15 kts 88°
2026-05-05 16:51 41.26978 28.75273 310 ft 0 kts 89°
2026-05-05 16:52 41.26978 28.75286 310 ft 6 kts 89°
2026-05-05 16:52 41.26948 28.75360 315 ft 12 kts 151°
2026-05-05 16:53 41.26863 28.75372 314 ft 13 kts 179°
2026-05-05 16:53 41.26763 28.75372 315 ft 13 kts 179°
2026-05-05 16:53 41.26669 28.75374 315 ft 15 kts 179°
2026-05-05 16:53 41.26560 28.75375 316 ft 14 kts 179°
2026-05-05 16:54 41.26468 28.75377 316 ft 13 kts 176°
2026-05-05 16:54 41.26420 28.75436 317 ft 8 kts 103°
2026-05-05 16:54 41.26418 28.75507 317 ft 0 kts 91°
2026-05-05 16:58 41.26418 28.75553 317 ft 9 kts 91°
2026-05-05 16:58 41.26424 28.75646 316 ft 11 kts 64°
2026-05-05 16:58 41.26456 28.75670 315 ft 0 kts 359°
2026-05-05 16:59 41.26514 28.75669 317 ft 32 kts 359°
2026-05-05 17:00 41.26996 28.75661 309 ft 104 kts 359°
2026-05-05 17:00 41.27938 28.75648 308 ft 164 kts 359°
2026-05-05 17:00 41.29107 28.75652 1054 ft 168 kts
2026-05-05 17:00 41.30250 28.75675 2157 ft 161 kts
2026-05-05 17:01 41.31386 28.76015 2725 ft 183 kts 20°
2026-05-05 17:01 41.32641 28.76810 3134 ft 214 kts 25°
2026-05-05 17:01 41.34051 28.77788 3513 ft 244 kts 26°
2026-05-05 17:01 41.35683 28.78505 4299 ft 250 kts
2026-05-05 17:02 41.37360 28.78091 5301 ft 249 kts 335°
2026-05-05 17:02 41.38686 28.76624 6450 ft 250 kts 312°
2026-05-05 17:02 41.39690 28.74700 7455 ft 254 kts 307°
2026-05-05 17:02 41.40639 28.72678 8405 ft 260 kts 306°
2026-05-05 17:03 41.41584 28.70621 9369 ft 264 kts 306°
2026-05-05 17:03 41.42530 28.68500 10300 ft 269 kts 306°
2026-05-05 17:03 41.43510 28.66306 10739 ft 290 kts 305°
2026-05-05 17:03 41.44592 28.63888 11147 ft 310 kts 305°
2026-05-05 17:04 41.45712 28.61371 11856 ft 319 kts 305°
2026-05-05 17:04 41.46841 28.58830 12690 ft 324 kts 305°
2026-05-05 17:04 41.48001 28.56216 13545 ft 329 kts 305°
2026-05-05 17:04 41.49165 28.53596 14294 ft 334 kts 304°
2026-05-05 17:05 41.50369 28.50884 14984 ft 340 kts 303°
2026-05-05 17:05 41.51549 28.48152 15704 ft 345 kts 302°
2026-05-05 17:05 41.52752 28.45347 16464 ft 348 kts 302°
2026-05-05 17:05 41.53980 28.42514 17218 ft 352 kts 302°
2026-05-05 17:06 41.55210 28.39698 17950 ft 356 kts 302°
2026-05-05 17:06 41.56480 28.36807 18629 ft 361 kts 302°
2026-05-05 17:06 41.57745 28.33932 19232 ft 365 kts 302°
2026-05-05 17:06 41.59047 28.30979 19820 ft 369 kts 302°
2026-05-05 17:07 41.60357 28.28004 20425 ft 373 kts 302°
2026-05-05 17:07 41.61693 28.25004 21056 ft 375 kts 304°
2026-05-05 17:07 41.63037 28.22046 21746 ft 377 kts 304°
2026-05-05 17:07 41.64400 28.19023 22334 ft 381 kts 303°
2026-05-05 17:08 41.65767 28.15956 22909 ft 385 kts 303°
2026-05-05 17:08 41.67141 28.12852 23477 ft 390 kts 303°
2026-05-05 17:08 41.68511 28.09741 23962 ft 394 kts 303°
2026-05-05 17:08 41.69918 28.06536 24417 ft 398 kts 303°
2026-05-05 17:09 41.71310 28.03357 24851 ft 402 kts 302°
2026-05-05 17:09 41.72731 28.00108 25305 ft 406 kts 302°
2026-05-05 17:09 41.74168 27.96817 25750 ft 409 kts 302°
2026-05-05 17:09 41.75609 27.93511 26178 ft 413 kts 302°
2026-05-05 17:10 41.77051 27.90203 26603 ft 417 kts 302°
2026-05-05 17:10 41.78519 27.86828 27019 ft 421 kts 302°
2026-05-05 17:10 41.80002 27.83416 27440 ft 424 kts 302°
2026-05-05 17:10 41.81499 27.79966 27857 ft 428 kts 302°
2026-05-05 17:11 41.82990 27.76526 28277 ft 431 kts 302°
2026-05-05 17:11 41.84510 27.73016 28729 ft 433 kts 302°
2026-05-05 17:11 41.86006 27.69557 29331 ft 433 kts 302°
2026-05-05 17:11 41.87527 27.66036 29749 ft 436 kts 302°
2026-05-05 17:12 41.89063 27.62478 30112 ft 440 kts 302°
2026-05-05 17:12 41.90607 27.58897 30447 ft 443 kts 302°
2026-05-05 17:12 41.92146 27.55323 30801 ft 446 kts 302°
2026-05-05 17:12 41.93693 27.51725 31149 ft 449 kts 302°
2026-05-05 17:13 41.95269 27.48056 31510 ft 451 kts 302°
2026-05-05 17:13 41.96820 27.44438 32025 ft 449 kts 302°
2026-05-05 17:13 41.98397 27.40757 32402 ft 451 kts 302°
2026-05-05 17:13 41.99951 27.37128 32712 ft 455 kts 302°
2026-05-05 17:14 42.01536 27.33417 33170 ft 454 kts 302°
2026-05-05 17:14 42.03093 27.29768 33665 ft 452 kts 302°
2026-05-05 17:14 42.04660 27.26091 34125 ft 451 kts 301°
2026-05-05 17:14 42.06214 27.22421 34533 ft 450 kts 301°
2026-05-05 17:15 42.07723 27.18807 35041 ft 445 kts 301°
2026-05-05 17:15 42.09222 27.15189 35650 ft 439 kts 301°
2026-05-05 17:15 42.10707 27.11597 36094 ft 436 kts 301°
2026-05-05 17:15 42.12173 27.08047 36434 ft 436 kts 301°
2026-05-05 17:16 42.13658 27.04453 36775 ft 436 kts 301°
2026-05-05 17:16 42.15114 27.00927 37126 ft 435 kts 301°
2026-05-05 17:16 42.16586 26.97359 37488 ft 434 kts 301°
2026-05-05 17:16 42.18061 26.93782 37856 ft 432 kts 301°
2026-05-05 17:17 42.19505 26.90276 38212 ft 432 kts 301°
2026-05-05 17:17 42.20965 26.86727 38537 ft 431 kts 301°
2026-05-05 17:17 42.22424 26.83177 38818 ft 430 kts 301°
2026-05-05 17:17 42.23858 26.79682 39045 ft 430 kts 300°
2026-05-05 17:18 42.25313 26.76133 39248 ft 431 kts 300°
2026-05-05 17:18 42.26771 26.72573 39454 ft 431 kts 300°
2026-05-05 17:18 42.28198 26.69084 39660 ft 431 kts 300°
2026-05-05 17:18 42.29660 26.65503 39849 ft 432 kts 300°
2026-05-05 17:19 42.31099 26.61974 40002 ft 434 kts 300°
2026-05-05 17:19 42.32570 26.58364 40020 ft 439 kts 300°
2026-05-05 17:19 42.35512 26.51129 40021 ft 441 kts 300°
2026-05-05 17:20 42.38456 26.43868 40021 ft 440 kts 300°
2026-05-05 17:20 42.41382 26.36634 40013 ft 439 kts 300°
2026-05-05 17:21 42.44323 26.29348 40021 ft 439 kts 300°
2026-05-05 17:22 42.48693 26.18485 40016 ft 440 kts 300°
2026-05-05 17:22 42.51625 26.11174 40013 ft 440 kts 300°
2026-05-05 17:23 42.54546 26.03869 40007 ft 439 kts 300°
2026-05-05 17:23 42.57448 25.96595 40014 ft 439 kts 300°
2026-05-05 17:24 42.60337 25.89337 40011 ft 439 kts 300°
2026-05-05 17:24 42.63233 25.82040 39997 ft 438 kts 300°
2026-05-05 17:25 42.66108 25.74780 40010 ft 438 kts 300°
2026-05-05 17:25 42.68980 25.67507 40011 ft 438 kts 300°
2026-05-05 17:26 42.71872 25.60167 40009 ft 438 kts 300°
2026-05-05 17:26 42.74735 25.52880 39998 ft 438 kts 300°
2026-05-05 17:27 42.77599 25.45573 40003 ft 438 kts 300°
2026-05-05 17:27 42.80457 25.38263 40005 ft 437 kts 300°
2026-05-05 17:28 42.83293 25.30990 40020 ft 438 kts 300°
2026-05-05 17:28 42.86142 25.23667 40005 ft 438 kts 300°
2026-05-05 17:29 42.88997 25.16308 40010 ft 438 kts 300°
2026-05-05 17:29 42.91835 25.08975 40009 ft 438 kts 300°
2026-05-05 17:30 42.94682 25.01598 40008 ft 438 kts 299°
2026-05-05 17:30 42.97513 24.94245 40007 ft 438 kts 299°
2026-05-05 17:31 43.00340 24.86883 40021 ft 438 kts 299°
2026-05-05 17:31 43.03156 24.79531 40010 ft 438 kts 299°
2026-05-05 17:32 43.05973 24.72156 40023 ft 438 kts 299°
2026-05-05 17:32 43.08798 24.64741 40012 ft 438 kts 299°
2026-05-05 17:33 43.11598 24.57371 40015 ft 438 kts 299°
2026-05-05 17:33 43.14411 24.49947 40014 ft 438 kts 299°
2026-05-05 17:34 43.17206 24.42554 40004 ft 438 kts 299°
2026-05-05 17:34 43.19994 24.35157 40004 ft 438 kts 299°
2026-05-05 17:35 43.22769 24.27779 40003 ft 437 kts 298°
2026-05-05 17:35 43.25544 24.20379 40003 ft 437 kts 298°
2026-05-05 17:36 43.28322 24.12954 40000 ft 437 kts 298°
2026-05-05 17:36 43.31084 24.05552 39997 ft 436 kts 298°
2026-05-05 17:37 43.33856 23.98101 39995 ft 435 kts 298°
2026-05-05 17:37 43.36139 23.91950 39994 ft 435 kts 298°
2026-05-05 17:38 43.38880 23.84550 39993 ft 436 kts 298°
2026-05-05 17:38 43.41621 23.77127 39987 ft 435 kts 298°
2026-05-05 17:39 43.44353 23.69711 39994 ft 434 kts 298°
2026-05-05 17:39 43.47088 23.62268 39995 ft 434 kts 298°
2026-05-05 17:40 43.49807 23.54849 39996 ft 436 kts 298°
2026-05-05 17:40 43.52523 23.47419 39990 ft 436 kts 298°
2026-05-05 17:41 43.55233 23.39984 39995 ft 435 kts 298°
2026-05-05 17:41 43.57954 23.32496 39985 ft 435 kts 298°
2026-05-05 17:42 43.60660 23.25033 39990 ft 435 kts 298°
2026-05-05 17:42 43.63350 23.17592 39981 ft 435 kts 297°
2026-05-05 17:43 43.66041 23.10126 39986 ft 434 kts 297°
2026-05-05 17:43 43.68721 23.02674 39988 ft 434 kts 297°
2026-05-05 17:44 43.71400 22.95201 39990 ft 434 kts 297°
2026-05-05 17:44 43.74066 22.87747 39982 ft 434 kts 297°
2026-05-05 17:45 43.76751 22.80218 39981 ft 433 kts 297°
2026-05-05 17:45 43.79401 22.72767 39980 ft 433 kts 297°
2026-05-05 17:46 43.82063 22.65263 39976 ft 433 kts 297°
2026-05-05 17:46 43.84702 22.57804 39975 ft 433 kts 297°
2026-05-05 17:47 43.87351 22.50297 39978 ft 433 kts 297°
2026-05-05 17:47 43.89993 22.42785 39978 ft 432 kts 296°
2026-05-05 17:48 43.92712 22.35387 39977 ft 432 kts 299°
2026-05-05 17:48 43.95631 22.28138 39977 ft 433 kts 300°
2026-05-05 17:49 43.98616 22.20814 39983 ft 434 kts 300°
2026-05-05 17:49 44.01550 22.13532 39982 ft 434 kts 300°
2026-05-05 17:50 44.04470 22.06219 39981 ft 434 kts 300°
2026-05-05 17:50 44.07400 21.98848 39982 ft 434 kts 299°
2026-05-05 17:51 44.10295 21.91549 39981 ft 433 kts 299°
2026-05-05 17:51 44.13200 21.84204 39979 ft 433 kts 299°
2026-05-05 17:52 44.16101 21.76854 39983 ft 433 kts 299°
2026-05-05 17:52 44.18986 21.69523 39977 ft 433 kts 299°
2026-05-05 17:53 44.21871 21.62175 39978 ft 432 kts 299°
2026-05-05 17:53 44.24752 21.54815 39969 ft 432 kts 298°
2026-05-05 17:54 44.27619 21.47475 39963 ft 432 kts 298°
2026-05-05 17:54 44.30486 21.40115 39963 ft 432 kts 298°
2026-05-05 17:55 44.33348 21.32749 39952 ft 432 kts 298°
2026-05-05 17:55 44.36205 21.25379 39945 ft 432 kts 298°
2026-05-05 17:56 44.39070 21.17964 39945 ft 433 kts 298°
2026-05-05 17:56 44.41914 21.10587 39941 ft 433 kts 298°
2026-05-05 17:57 44.44775 21.03143 39941 ft 433 kts 298°
2026-05-05 17:57 44.47612 20.95744 39942 ft 432 kts 298°
2026-05-05 17:58 44.50448 20.88330 39939 ft 432 kts 298°
2026-05-05 17:58 44.53288 20.80884 39938 ft 432 kts 298°
2026-05-05 17:59 44.56110 20.73466 39941 ft 432 kts 298°
2026-05-05 17:59 44.58935 20.66019 39939 ft 433 kts 298°
2026-05-05 18:00 44.61754 20.58570 39939 ft 433 kts 298°
2026-05-05 18:00 44.64573 20.51102 39940 ft 433 kts 298°
2026-05-05 18:01 44.67394 20.43605 39931 ft 433 kts 298°
2026-05-05 18:01 44.70202 20.36121 39938 ft 434 kts 298°
2026-05-05 18:02 44.73004 20.28633 39938 ft 434 kts 297°
2026-05-05 18:02 44.75811 20.21112 39940 ft 434 kts 297°
2026-05-05 18:03 44.78620 20.13567 39939 ft 434 kts 297°
2026-05-05 18:03 44.81412 20.06046 39936 ft 435 kts 297°
2026-05-05 18:04 44.84218 19.98466 39939 ft 436 kts 297°
2026-05-05 18:04 44.87001 19.90927 39939 ft 435 kts 297°
2026-05-05 18:05 44.89787 19.83358 39939 ft 435 kts 297°
2026-05-05 18:05 44.92565 19.75793 39939 ft 436 kts 297°
2026-05-05 18:06 44.95358 19.68165 39942 ft 436 kts 297°
2026-05-05 18:06 44.98137 19.60551 39942 ft 436 kts 297°
2026-05-05 18:07 45.00893 19.52982 39944 ft 436 kts 297°
2026-05-05 18:07 45.03662 19.45357 39945 ft 435 kts 296°
2026-05-05 18:08 45.06424 19.37728 39942 ft 434 kts 296°
2026-05-05 18:08 45.09162 19.30143 39941 ft 434 kts 296°
2026-05-05 18:09 45.11909 19.22512 39949 ft 434 kts 296°
2026-05-05 18:09 45.14628 19.14938 39949 ft 434 kts 296°
2026-05-05 18:10 45.17360 19.07308 39953 ft 434 kts 296°
2026-05-05 18:10 45.20082 18.99683 39951 ft 434 kts 296°
2026-05-05 18:11 45.22808 18.92026 39948 ft 434 kts 296°
2026-05-05 18:11 45.25510 18.84412 39946 ft 434 kts 296°
2026-05-05 18:12 45.28224 18.76743 39946 ft 433 kts 296°
2026-05-05 18:12 45.30926 18.69088 39963 ft 433 kts 296°
2026-05-05 18:13 45.33617 18.61441 39963 ft 433 kts 296°
2026-05-05 18:13 45.36294 18.53812 39966 ft 433 kts 296°
2026-05-05 18:14 45.38984 18.46127 39963 ft 433 kts 296°
2026-05-05 18:14 45.41645 18.38502 39963 ft 432 kts 296°
2026-05-05 18:15 45.44307 18.30854 39969 ft 432 kts 295°
2026-05-05 18:15 45.46963 18.23198 39969 ft 432 kts 295°
2026-05-05 18:16 45.49623 18.15511 39969 ft 431 kts 295°
2026-05-05 18:16 45.52262 18.07860 39973 ft 430 kts 295°
2026-05-05 18:17 45.54902 18.00187 39961 ft 432 kts 295°
2026-05-05 18:17 45.57543 17.92484 39963 ft 433 kts 295°
2026-05-05 18:18 45.60191 17.84743 39972 ft 433 kts 295°
2026-05-05 18:18 45.62810 17.77064 39971 ft 432 kts 295°
2026-05-05 18:19 45.65431 17.69355 39971 ft 432 kts 295°
2026-05-05 18:19 45.68046 17.61641 39966 ft 432 kts 295°
2026-05-05 18:20 45.70674 17.53869 39962 ft 432 kts 295°
2026-05-05 18:20 45.73266 17.46179 39969 ft 431 kts 294°
2026-05-05 18:21 45.75867 17.38439 39962 ft 431 kts 294°
2026-05-05 18:21 45.78461 17.30698 39966 ft 431 kts 294°
2026-05-05 18:22 45.81058 17.22923 39966 ft 431 kts 294°
2026-05-05 18:22 45.83634 17.15192 39970 ft 431 kts 294°
2026-05-05 18:23 45.86199 17.07471 39960 ft 429 kts 294°
2026-05-05 18:23 45.88747 16.99777 39960 ft 429 kts 294°
2026-05-05 18:24 45.91301 16.92040 39960 ft 429 kts 294°
2026-05-05 18:24 45.93853 16.84287 39961 ft 430 kts 294°
2026-05-05 18:25 45.96402 16.76520 39958 ft 430 kts 293°
2026-05-05 18:25 45.98947 16.68744 39962 ft 429 kts 293°
2026-05-05 18:26 46.01484 16.60969 39959 ft 429 kts 293°
2026-05-05 18:26 46.04006 16.53214 39962 ft 429 kts 293°
2026-05-05 18:27 46.06532 16.45424 39966 ft 429 kts 293°
2026-05-05 18:27 46.09047 16.37647 39960 ft 430 kts 293°
2026-05-05 18:28 46.12823 16.25925 39962 ft 430 kts 292°
2026-05-05 18:28 46.15335 16.18097 39956 ft 430 kts 292°
2026-05-05 18:29 46.17831 16.10298 39963 ft 430 kts 292°
2026-05-05 18:29 46.20350 16.02399 39955 ft 431 kts 292°
2026-05-05 18:30 46.22839 15.94569 39957 ft 432 kts 292°
2026-05-05 18:30 46.25339 15.86680 39954 ft 432 kts 292°
2026-05-05 18:31 46.27906 15.78860 39955 ft 432 kts 294°
2026-05-05 18:31 46.30657 15.71152 39947 ft 433 kts 296°
2026-05-05 18:32 46.33446 15.63430 39945 ft 433 kts 295°
2026-05-05 18:32 46.36213 15.55691 39935 ft 433 kts 295°
2026-05-05 18:33 46.38961 15.47936 39939 ft 433 kts 295°
2026-05-05 18:33 46.41700 15.40170 39944 ft 433 kts 295°
2026-05-05 18:34 46.44437 15.32385 39940 ft 434 kts 295°
2026-05-05 18:34 46.47163 15.24609 39929 ft 434 kts 295°
2026-05-05 18:35 46.49899 15.16788 39945 ft 434 kts 294°
2026-05-05 18:35 46.52612 15.09008 39936 ft 434 kts 294°
2026-05-05 18:36 46.55342 15.01156 39951 ft 436 kts 294°
2026-05-05 18:36 46.58071 14.93287 39934 ft 437 kts 294°
2026-05-05 18:37 46.60790 14.85418 39934 ft 437 kts 294°
2026-05-05 18:37 46.63500 14.77554 39943 ft 437 kts 294°
2026-05-05 18:38 46.65773 14.70940 39940 ft 436 kts 294°
2026-05-05 18:38 46.68931 14.61724 39938 ft 439 kts 294°
2026-05-05 18:39 46.71193 14.55102 39937 ft 440 kts 294°
2026-05-05 18:39 46.74362 14.45798 39937 ft 440 kts 294°
2026-05-05 18:40 46.76625 14.39133 39940 ft 440 kts 294°
2026-05-05 18:40 46.79346 14.31096 39937 ft 441 kts 294°
2026-05-05 18:41 46.82061 14.23051 39933 ft 443 kts 294°
2026-05-05 18:41 46.84776 14.14982 39926 ft 443 kts 294°
2026-05-05 18:42 46.87485 14.06907 39924 ft 443 kts 294°
2026-05-05 18:42 46.90199 13.98792 39933 ft 443 kts 294°
2026-05-05 18:43 46.92870 13.90778 39925 ft 441 kts 294°
2026-05-05 18:43 46.95550 13.82716 39932 ft 441 kts 293°
2026-05-05 18:44 46.98234 13.74614 39929 ft 442 kts 294°
2026-05-05 18:44 47.00919 13.66484 39924 ft 443 kts 294°
2026-05-05 18:45 47.03592 13.58365 39927 ft 443 kts 293°
2026-05-05 18:45 47.06265 13.50222 39927 ft 442 kts 293°
2026-05-05 18:46 47.08904 13.42154 39923 ft 441 kts 293°
2026-05-05 18:46 47.11556 13.34024 39914 ft 442 kts 293°
2026-05-05 18:47 47.14207 13.25863 39911 ft 442 kts 292°
2026-05-05 18:47 47.16827 13.17777 39899 ft 440 kts 292°
2026-05-05 18:48 47.19462 13.09625 39894 ft 440 kts 292°
2026-05-05 18:48 47.22077 13.01508 39889 ft 440 kts 292°
2026-05-05 18:49 47.24682 12.93392 39865 ft 440 kts 292°
2026-05-05 18:49 47.27295 12.85220 39868 ft 441 kts 291°
2026-05-05 18:50 47.29897 12.77062 39885 ft 441 kts 291°
2026-05-05 18:50 47.32502 12.68873 39860 ft 441 kts 291°
2026-05-05 18:51 47.35103 12.60671 39861 ft 441 kts 291°
2026-05-05 18:51 47.37695 12.52465 39849 ft 442 kts 291°
2026-05-05 18:52 47.40276 12.44260 39840 ft 442 kts 291°
2026-05-05 18:52 47.42861 12.36019 39837 ft 442 kts 291°
2026-05-05 18:53 47.45444 12.27751 39842 ft 442 kts 291°
2026-05-05 18:53 47.48015 12.19506 39835 ft 442 kts 291°
2026-05-05 18:54 47.50582 12.11247 39832 ft 443 kts 291°
2026-05-05 18:54 47.53087 12.02927 39827 ft 441 kts 287°
2026-05-05 18:55 47.54788 11.94323 39832 ft 436 kts 279°
2026-05-05 18:55 47.55952 11.85548 39829 ft 435 kts 277°
2026-05-05 18:56 47.57026 11.76693 39848 ft 436 kts 277°
2026-05-05 18:56 47.58131 11.67889 39836 ft 437 kts 277°
2026-05-05 18:57 47.59272 11.59032 39834 ft 438 kts 277°
2026-05-05 18:57 47.60409 11.50222 39831 ft 437 kts 277°
2026-05-05 18:58 47.61549 11.41326 39841 ft 437 kts 277°
2026-05-05 18:58 47.62669 11.32525 39841 ft 437 kts 277°
2026-05-05 18:59 47.63786 11.23690 39843 ft 436 kts 277°
2026-05-05 18:59 47.64901 11.14804 39842 ft 436 kts 277°
2026-05-05 19:00 47.66004 11.05941 39425 ft 441 kts 277°
2026-05-05 19:00 47.66554 11.01505 38994 ft 439 kts 276°
2026-05-05 19:00 47.67105 10.97072 38786 ft 430 kts 276°
2026-05-05 19:01 47.67640 10.92746 38423 ft 427 kts 276°
2026-05-05 19:01 47.68171 10.88431 37818 ft 427 kts 276°
2026-05-05 19:01 47.68703 10.84074 37224 ft 426 kts 276°
2026-05-05 19:01 47.69228 10.79767 36722 ft 424 kts 275°
2026-05-05 19:02 47.69747 10.75505 36203 ft 422 kts 275°
2026-05-05 19:02 47.70265 10.71227 35648 ft 421 kts 275°
2026-05-05 19:02 47.70786 10.66915 35063 ft 421 kts 275°
2026-05-05 19:02 47.71295 10.62678 34481 ft 420 kts 274°
2026-05-05 19:03 47.71810 10.58387 33920 ft 419 kts 274°
2026-05-05 19:03 47.72315 10.54149 32986 ft 425 kts 275°
2026-05-05 19:03 47.72836 10.49743 31796 ft 435 kts 275°
2026-05-05 19:03 47.73357 10.45306 30705 ft 444 kts 275°
2026-05-05 19:04 47.73896 10.40743 29867 ft 446 kts 276°
2026-05-05 19:04 47.74357 10.36272 29249 ft 437 kts 270°
2026-05-05 19:04 47.74451 10.31773 28580 ft 430 kts 266°
2026-05-05 19:04 47.74438 10.27390 27844 ft 427 kts 265°
2026-05-05 19:05 47.74368 10.22968 27148 ft 423 kts 265°
2026-05-05 19:05 47.74269 10.18640 26465 ft 420 kts 264°
2026-05-05 19:05 47.74156 10.14344 25827 ft 416 kts 264°
2026-05-05 19:05 47.74039 10.10033 25096 ft 416 kts 265°
2026-05-05 19:06 47.73926 10.05764 24489 ft 413 kts 265°
2026-05-05 19:06 47.73817 10.01540 23911 ft 409 kts 265°
2026-05-05 19:06 47.73711 9.97293 23360 ft 405 kts 265°
2026-05-05 19:06 47.73609 9.93189 22847 ft 398 kts 265°
2026-05-05 19:07 47.73508 9.89116 22383 ft 389 kts 265°
2026-05-05 19:07 47.73408 9.85137 21978 ft 381 kts 265°
2026-05-05 19:07 47.73309 9.81269 21559 ft 374 kts 265°
2026-05-05 19:07 47.73243 9.78709 21292 ft 369 kts 265°
2026-05-05 19:08 47.73215 9.77609 21207 ft 366 kts 265°
2026-05-05 19:08 47.73174 9.76049 21071 ft 363 kts 265°
2026-05-05 19:08 47.73113 9.73741 20794 ft 360 kts 265°
2026-05-05 19:08 47.73013 9.70053 20457 ft 352 kts 265°
2026-05-05 19:09 47.72912 9.66415 19989 ft 357 kts 265°
2026-05-05 19:09 47.72806 9.62698 19554 ft 363 kts 265°
2026-05-05 19:09 47.72698 9.58924 19221 ft 362 kts 265°
2026-05-05 19:09 47.72593 9.55222 18905 ft 359 kts 265°
2026-05-05 19:10 47.72487 9.51547 18588 ft 357 kts 265°
2026-05-05 19:10 47.72376 9.47859 18268 ft 355 kts 264°
2026-05-05 19:10 47.71971 9.44287 17923 ft 351 kts 252°
2026-05-05 19:10 47.71004 9.40977 17606 ft 348 kts 239°
2026-05-05 19:11 47.69703 9.37970 17280 ft 346 kts 234°
2026-05-05 19:11 47.68245 9.35098 16960 ft 345 kts 232°
2026-05-05 19:11 47.66735 9.32360 16654 ft 343 kts 230°
2026-05-05 19:11 47.65198 9.29662 16344 ft 342 kts 230°
2026-05-05 19:12 47.63671 9.26992 16039 ft 340 kts 230°
2026-05-05 19:12 47.62164 9.24335 15897 ft 326 kts 230°
2026-05-05 19:12 47.60775 9.21829 15884 ft 308 kts 233°
2026-05-05 19:12 47.59707 9.19187 15886 ft 291 kts 245°
2026-05-05 19:13 47.59033 9.16416 15784 ft 281 kts 252°
2026-05-05 19:13 47.58548 9.13657 15533 ft 275 kts 256°
2026-05-05 19:13 47.58168 9.10888 15278 ft 270 kts 258°
2026-05-05 19:13 47.57848 9.08192 15044 ft 265 kts 258°
2026-05-05 19:14 47.57550 9.05536 14801 ft 261 kts 259°
2026-05-05 19:14 47.57501 9.02865 14550 ft 259 kts 280°
2026-05-05 19:14 47.58282 9.00493 14319 ft 263 kts 306°
2026-05-05 19:14 47.59772 8.98858 14082 ft 269 kts 334°
2026-05-05 19:15 47.61621 8.98490 13840 ft 277 kts
2026-05-05 19:15 47.63393 8.99584 13578 ft 281 kts 37°
2026-05-05 19:15 47.64525 9.01887 13328 ft 279 kts 72°
2026-05-05 19:15 47.64743 9.04716 13066 ft 272 kts 96°
2026-05-05 19:16 47.64555 9.07447 12895 ft 264 kts 103°
2026-05-05 19:16 47.64169 9.10097 12883 ft 259 kts 109°
2026-05-05 19:16 47.63685 9.12642 12881 ft 259 kts 110°
2026-05-05 19:16 47.63209 9.15247 12880 ft 260 kts 108°
2026-05-05 19:17 47.62578 9.17708 12885 ft 256 kts 125°
2026-05-05 19:17 47.61455 9.19682 12865 ft 245 kts 149°
2026-05-05 19:17 47.59959 9.20663 12886 ft 232 kts 177°
2026-05-05 19:17 47.58401 9.20453 12886 ft 223 kts 204°
2026-05-05 19:18 47.57144 9.19197 12886 ft 219 kts 230°
2026-05-05 19:18 47.56436 9.17220 12890 ft 228 kts 255°
2026-05-05 19:18 47.56272 9.14794 12868 ft 243 kts 268°
2026-05-05 19:18 47.56383 9.12262 12884 ft 248 kts 274°
2026-05-05 19:19 47.56632 9.09729 12889 ft 249 kts 276°
2026-05-05 19:19 47.56925 9.07216 12887 ft 249 kts 277°
2026-05-05 19:19 47.57220 9.04698 12889 ft 249 kts 278°
2026-05-05 19:19 47.57784 9.02259 12876 ft 252 kts 294°
2026-05-05 19:20 47.58848 9.00224 12743 ft 253 kts 316°
2026-05-05 19:20 47.60455 8.99090 12480 ft 261 kts 347°
2026-05-05 19:20 47.62259 8.99377 12247 ft 267 kts 15°
2026-05-05 19:20 47.64027 9.00115 11978 ft 264 kts
2026-05-05 19:21 47.65809 8.99739 11724 ft 260 kts 332°
2026-05-05 19:21 47.67249 8.98187 11360 ft 252 kts 303°
2026-05-05 19:21 47.67977 8.95921 11031 ft 241 kts 279°
2026-05-05 19:21 47.68262 8.93473 10726 ft 237 kts 270°
2026-05-05 19:22 47.67977 8.91137 10414 ft 231 kts 242°
2026-05-05 19:22 47.67003 8.89269 10123 ft 230 kts 226°
2026-05-05 19:22 47.65855 8.87641 9613 ft 233 kts 224°
2026-05-05 19:22 47.64644 8.85982 9193 ft 237 kts 220°
2026-05-05 19:23 47.63185 8.84923 8926 ft 236 kts 193°
2026-05-05 19:23 47.61535 8.84720 8886 ft 238 kts 185°
2026-05-05 19:23 47.59877 8.84699 8887 ft 239 kts 184°
2026-05-05 19:23 47.58198 8.84698 8891 ft 240 kts 184°
2026-05-05 19:24 47.56544 8.84745 8825 ft 241 kts 176°
2026-05-05 19:24 47.54974 8.85666 8712 ft 249 kts 147°
2026-05-05 19:24 47.53811 8.87625 8600 ft 256 kts 127°
2026-05-05 19:24 47.52898 8.89889 8502 ft 258 kts 124°
2026-05-05 19:25 47.52014 8.92198 8349 ft 259 kts 123°
2026-05-05 19:25 47.50913 8.94260 8163 ft 250 kts 147°
2026-05-05 19:25 47.49398 8.95262 7896 ft 239 kts 174°
2026-05-05 19:25 47.47751 8.95467 7667 ft 231 kts 183°
2026-05-05 19:26 47.46214 8.95241 7542 ft 217 kts 204°
2026-05-05 19:26 47.45070 8.93969 7414 ft 205 kts 236°
2026-05-05 19:26 47.44498 8.92099 7348 ft 193 kts 251°
2026-05-05 19:26 47.44128 8.90228 7153 ft 187 kts 253°
2026-05-05 19:27 47.43784 8.88396 6888 ft 184 kts 255°
2026-05-05 19:27 47.43630 8.86552 6570 ft 180 kts 268°
2026-05-05 19:27 47.43668 8.85330 6367 ft 177 kts 273°
2026-05-05 19:27 47.43828 8.82957 5894 ft 172 kts 274°
2026-05-05 19:28 47.43914 8.81785 5630 ft 171 kts 274°
2026-05-05 19:28 47.44033 8.80095 5385 ft 161 kts 274°
2026-05-05 19:28 47.44144 8.78471 5098 ft 153 kts 274°
2026-05-05 19:28 47.44247 8.76944 4824 ft 148 kts 274°
2026-05-05 19:29 47.44350 8.75465 4530 ft 141 kts 273°
2026-05-05 19:29 47.44449 8.74063 4250 ft 136 kts 273°
2026-05-05 19:29 47.44548 8.72675 3942 ft 135 kts 272°
2026-05-05 19:29 47.44646 8.71315 3656 ft 133 kts 272°
2026-05-05 19:30 47.44742 8.69961 3352 ft 132 kts 272°
2026-05-05 19:30 47.44839 8.68597 3159 ft 134 kts 272°
2026-05-05 19:30 47.44936 8.67227 2960 ft 137 kts 273°
2026-05-05 19:30 47.45036 8.65818 2770 ft 139 kts 273°
2026-05-05 19:31 47.45138 8.64381 2550 ft 141 kts 274°
2026-05-05 19:31 47.45239 8.62963 2335 ft 134 kts 274°
2026-05-05 19:31 47.45333 8.61633 2155 ft 129 kts 274°
2026-05-05 19:31 47.45427 8.60310 1952 ft 129 kts 274°
2026-05-05 19:32 47.45521 8.58988 1753 ft 130 kts 273°
2026-05-05 19:32 47.45619 8.57673 1538 ft 129 kts 273°
2026-05-05 19:32 47.45713 8.56359 1414 ft 127 kts 273°
2026-05-05 19:32 47.45784 8.55269 1401 ft 83 kts 276°
2026-05-05 19:33 47.45826 8.54602 1409 ft 43 kts 267°
2026-05-05 19:33 47.45769 8.54306 1411 ft 18 kts 245°
2026-05-05 19:33 47.45678 8.54200 1404 ft 17 kts 178°
2026-05-05 19:33 47.45611 8.54292 1405 ft 15 kts 113°
2026-05-05 19:34 47.45575 8.54446 1405 ft 16 kts 108°
2026-05-05 19:34 47.45540 8.54606 1409 ft 16 kts 108°
2026-05-05 19:34 47.45506 8.54756 1408 ft 16 kts 108°
2026-05-05 19:35 47.45442 8.55031 1412 ft 11 kts 109°
2026-05-05 19:35 47.45416 8.55142 1413 ft 12 kts 109°
2026-05-05 19:35 47.45389 8.55252 1414 ft 8 kts 111°
2026-05-05 19:35 47.45385 8.55265 1413 ft 0 kts 114°
2026-05-05 19:36 47.45377 8.55298 1410 ft 0 kts 108°
2026-05-05 19:38 47.45375 8.55305 1406 ft 4 kts 111°
2026-05-05 19:38 47.45353 8.55359 1415 ft 5 kts 122°
2026-05-05 19:38 47.45351 8.55365 1414 ft 0 kts 122°
2026-05-05 19:38 47.45344 8.55381 1410 ft 9 kts 122°
2026-05-05 19:39 47.45321 8.55419 1409 ft 2 kts 143°
2026-05-05 19:39 47.45248 8.55473 1411 ft 15 kts 154°
2026-05-05 19:39 47.45146 8.55545 1411 ft 17 kts 155°
2026-05-05 19:39 47.45035 8.55619 1409 ft 17 kts 155°
2026-05-05 19:40 47.44961 8.55683 1411 ft 8 kts 124°
2026-05-05 19:40 47.44955 8.55759 1410 ft 9 kts 96°
2026-05-05 19:40 47.44954 8.55835 1408 ft 3 kts 66°
2026-05-05 19:40 47.44978 8.55849 1406 ft 4 kts
2026-05-05 19:41 47.45011 8.55853 1405 ft 4 kts
2026-05-05 19:41 47.45031 8.55856 1407 ft 2 kts
2026-05-05 19:41 47.45035 8.55857 1407 ft 0 kts